FW2502 Weather Reports


Display with metric or nautical units.
time (UTC)temp
F
wind
direction
speed
MPH
gust
MPH
rain 1hr
in
rain 24hr
in
rain mn
in
humidity
%
barometer
mb
20190216053843 60 211 0.0 0.0 0.00 0.00 0.00 73 1008.8
20190216052806 60 198 0.0 0.0 0.00 0.00 0.00 72 1009.0
20190216051740 60 212 0.0 0.0 0.00 0.00 0.00 70 1009.0
20190216050747 61 227 0.0 0.0 0.00 0.00 0.00 69 1009.0
20190216045751 61 218 0.0 0.0 0.00 0.00 0.00 67 1008.9
20190216044757 61 215 0.0 0.0 0.00 0.00 0.00 66 1008.7
20190216043743 61 222 0.0 0.0 0.00 0.00 0.00 65 1008.7
20190216042731 61 221 0.0 0.0 0.00 0.00 0.00 64 1008.7
20190216041702 62 223 0.0 0.0 0.00 0.00 0.00 63 1008.8
20190216040705 62 223 0.0 0.0 0.00 0.00 0.00 61 1008.9
20190216035728 62 193 0.0 0.0 0.00 0.00 0.00 60 1009.0
20190216034745 62 198 0.0 0.0 0.00 0.00 0.00 60 1009.1
20190216033733 62 202 0.0 0.0 0.00 0.00 0.00 60 1009.0
20190216032747 62 202 0.0 0.0 0.00 0.00 0.00 60 1008.9
20190216031757 62 205 0.0 0.0 0.00 0.00 0.00 60 1009.1
20190216030743 62 205 0.0 0.0 0.00 0.00 0.00 60 1009.1
20190216025759 63 219 0.0 0.0 0.00 0.00 0.00 60 1009.0
20190216024732 63 213 0.0 0.0 0.00 0.00 0.00 60 1008.8
20190216023739 63 202 0.0 0.0 0.00 0.00 0.00 60 1008.7
20190216022747 63 203 0.0 0.0 0.00 0.00 0.00 60 1008.8
20190216021737 63 202 0.0 0.0 0.00 0.00 0.00 59 1008.7
20190216020721 63 193 0.0 0.0 0.00 0.00 0.00 58 1008.7
20190216015708 64 209 0.0 0.0 0.00 0.00 0.00 57 1008.7
20190216014653 64 209 0.0 0.0 0.00 0.00 0.00 58 1008.7
20190216013628 64 215 0.0 0.0 0.00 0.00 0.00 58 1008.6
20190216012603 64 215 0.0 0.0 0.00 0.00 0.00 57 1008.6
20190216011611 64 198 0.0 0.0 0.00 0.00 0.00 58 1008.5
20190216010543 64 190 0.0 0.0 0.00 0.00 0.00 58 1008.5
20190216005524 64 198 0.0 0.0 0.00 0.00 0.00 58 1008.5
20190216004541 63 209 0.0 0.0 0.00 0.00 0.00 59 1008.5
20190216003555 63 209 0.0 0.0 0.00 0.00 0.00 59 1008.6
20190216002537 63 216 0.0 0.0 0.00 0.00 0.00 59 1008.4
20190216001510 63 220 0.0 0.0 0.00 0.00 0.00 59 1008.4
20190216000456 64 220 0.0 0.0 0.00 0.00 0.00 58 1008.5
20190215235453 64 220 0.0 0.0 0.00 0.00 0.00 58 1008.4
20190215234416 64 220 0.0 0.0 0.00 0.00 0.00 56 1008.3
20190215233436 65 220 0.0 0.0 0.00 0.00 0.00 56 1008.3
20190215232459 65 220 0.0 0.0 0.00 0.00 0.00 55 1008.1
20190215231445 66 222 0.0 0.0 0.00 0.00 0.00 54 1008.0
20190215230416 66 226 0.0 0.0 0.00 0.00 0.00 53 1008.0
20190215225342 66 207 0.0 0.0 0.00 0.00 0.00 52 1007.9
20190215224322 67 221 0.0 0.0 0.00 0.00 0.00 52 1008.0
20190215223335 67 232 0.0 0.0 0.00 0.00 0.00 51 1007.9
20190215222350 68 205 0.0 0.0 0.00 0.00 0.00 50 1007.9
20190215221349 68 178 0.0 0.0 0.00 0.00 0.00 50 1008.1
20190215220359 68 209 0.0 0.0 0.00 0.00 0.00 49 1008.1
20190215215413 68 207 0.0 0.0 0.00 0.00 0.00 48 1008.0
20190215214347 69 263 0.0 0.0 0.00 0.00 0.00 47 1008.0
20190215213336 69 200 0.0 0.0 0.00 0.00 0.00 46 1007.9
20190215212313 69 233 0.0 0.0 0.00 0.00 0.00 46 1007.9
20190215211327 70 263 1.0 11.0 0.00 0.00 0.00 46 1007.9
20190215210339 70 237 0.0 0.0 0.00 0.00 0.00 46 1008.0
20190215205352 70 229 1.0 7.0 0.00 0.00 0.00 46 1008.0
20190215204415 70 192 1.0 9.0 0.00 0.00 0.00 46 1008.1
20190215203402 70 240 1.0 7.0 0.00 0.00 0.00 44 1008.0
20190215202424 70 239 2.0 5.0 0.00 0.00 0.00 44 1008.2
20190215201421 71 344 2.0 10.0 0.00 0.00 0.00 41 1008.2
20190215200357 72 203 2.0 11.0 0.00 0.00 0.00 39 1008.2
20190215195336 72 292 3.0 10.0 0.00 0.00 0.00 39 1008.3
20190215194325 72 182 1.0 9.0 0.00 0.00 0.00 38 1008.4
20190215193303 72 245 2.0 0.0 0.00 0.00 0.00 36 1008.4
20190215192251 73 259 1.0 11.0 0.00 0.00 0.00 33 1008.6
20190215191304 72 209 1.0 9.0 0.00 0.00 0.00 31 1008.8
20190215190246 73 163 1.0 13.0 0.00 0.00 0.00 28 1008.9
20190215185247 72 214 2.0 11.0 0.00 0.00 0.00 27 1009.0
20190215184241 72 254 3.0 12.0 0.00 0.00 0.00 26 1009.2
20190215183245 72 186 2.0 12.0 0.00 0.00 0.00 23 1009.3
20190215182253 72 192 3.0 13.0 0.00 0.00 0.00 22 1009.4
20190215181257 72 216 2.0 13.0 0.00 0.00 0.00 23 1009.6
20190215180236 72 230 2.0 10.0 0.00 0.00 0.00 21 1009.8
20190215175244 71 180 3.0 11.0 0.00 0.00 0.00 23 1009.9
20190215174248 71 184 4.0 11.0 0.00 0.00 0.00 25 1010.3
20190215173238 70 219 4.0 11.0 0.00 0.00 0.00 26 1010.4
20190215172220 70 205 4.0 14.0 0.00 0.00 0.00 27 1010.7
20190215171226 70 200 3.0 14.0 0.00 0.00 0.00 28 1011.1
20190215170219 69 246 3.0 12.0 0.00 0.00 0.00 27 1011.3
20190215165210 69 215 0.0 8.0 0.00 0.00 0.00 30 1011.6
20190215164227 69 157 2.0 12.0 0.00 0.00 0.00 32 1012.0
20190215163232 69 204 0.0 8.0 0.00 0.00 0.00 35 1012.1
20190215162207 68 251 1.0 8.0 0.00 0.00 0.00 37 1012.3
20190215161225 67 182 4.0 14.0 0.00 0.00 0.00 37 1012.3
20190215160228 68 220 2.0 10.0 0.00 0.00 0.00 42 1012.6
20190215155202 67 300 0.0 0.0 0.00 0.00 0.00 42 1012.8
20190215154205 67 213 1.0 4.0 0.00 0.00 0.00 43 1012.9
20190215153134 66 176 1.0 7.0 0.00 0.00 0.00 45 1013.1
20190215152107 66 245 0.0 7.0 0.00 0.00 0.00 50 1013.2
20190215151122 65 228 0.0 0.0 0.00 0.00 0.00 56 1013.3
20190215150136 63 219 0.0 0.0 0.00 0.00 0.00 60 1013.5
20190215145147 62 207 0.0 0.0 0.00 0.00 0.00 61 1013.6
20190215144118 62 209 0.0 0.0 0.00 0.00 0.00 63 1013.7
20190215143106 62 198 0.0 0.0 0.00 0.00 0.00 66 1013.8
20190215142110 61 261 0.0 0.0 0.00 0.00 0.00 67 1013.8
20190215141124 60 299 0.0 0.0 0.00 0.00 0.00 70 1013.8
20190215140048 60 199 0.0 0.0 0.00 0.00 0.00 71 1013.7
20190215135031 59 188 0.0 3.0 0.00 0.00 0.00 75 1013.7
20190215134014 58 178 0.0 0.0 0.00 0.00 0.00 79 1013.6
20190215133024 57 264 0.0 0.0 0.00 0.00 0.00 81 1013.7
20190215132004 57 229 0.0 0.0 0.00 0.00 0.00 81 1013.7
20190215130940 56 211 0.0 0.0 0.00 0.00 0.00 81 1013.7
20190215125947 56 194 0.0 0.0 0.00 0.00 0.00 82 1013.7
20190215124950 56 192 0.0 0.0 0.00 0.00 0.00 82 1013.7
20190215123948 56 230 0.0 0.0 0.00 0.00 0.00 83 1013.5
20190215123006 55 182 0.0 0.0 0.00 0.00 0.00 83 1013.5
20190215122021 55 185 0.0 0.0 0.00 0.00 0.00 84 1013.6
20190215121008 55 191 0.0 0.0 0.00 0.00 0.00 84 1013.6
20190215120026 54 223 0.0 0.0 0.00 0.00 0.00 85 1013.5
20190215115045 54 194 0.0 0.0 0.00 0.00 0.00 85 1013.4
20190215114021 53 213 0.0 0.0 0.00 0.00 0.00 86 1013.5
20190215112948 52 188 0.0 0.0 0.00 0.00 0.00 86 1013.7
20190215112003 52 187 0.0 0.0 0.00 0.00 0.00 86 1013.7
20190215110953 52 186 0.0 0.0 0.00 0.00 0.00 86 1013.9
20190215105950 51 186 0.0 0.0 0.00 0.00 0.00 85 1013.8
20190215104956 51 187 0.0 0.0 0.00 0.00 0.00 85 1014.1
20190215104010 51 187 0.0 0.0 0.00 0.00 0.00 84 1014.1
20190215102959 51 190 0.0 0.0 0.00 0.00 0.00 85 1014.3
20190215102002 51 190 0.0 0.0 0.00 0.00 0.00 84 1014.2
20190215100946 51 190 0.0 0.0 0.00 0.00 0.00 84 1014.2
20190215095921 51 190 0.0 0.0 0.00 0.00 0.00 83 1014.3
20190215094909 51 190 0.0 0.0 0.00 0.00 0.00 84 1014.4
20190215093929 51 190 0.0 0.0 0.00 0.00 0.00 83 1014.5
20190215092901 51 190 0.0 0.0 0.00 0.00 0.00 84 1014.3
20190215091907 51 198 0.0 0.0 0.00 0.00 0.00 84 1014.8
20190215090838 51 198 0.0 0.0 0.00 0.00 0.00 84 1014.7
20190215085859 51 198 0.0 0.0 0.00 0.00 0.00 84 1014.7
20190215084855 51 198 0.0 0.0 0.00 0.00 0.00 83 1014.7
20190215083855 50 198 0.0 0.0 0.00 0.00 0.00 83 1014.8
20190215082820 50 198 0.0 0.0 0.00 0.00 0.00 83 1014.5
20190215081823 50 198 0.0 0.0 0.00 0.00 0.00 82 1014.7
20190215080842 50 198 0.0 0.0 0.00 0.00 0.00 81 1014.7
20190215075835 50 198 0.0 0.0 0.00 0.00 0.00 80 1014.8
20190215074847 51 198 0.0 0.0 0.00 0.00 0.00 80 1014.7
20190215073820 51 198 0.0 0.0 0.00 0.00 0.00 79 1014.7
20190215072835 51 198 0.0 0.0 0.00 0.00 0.00 78 1015.0
20190215071813 51 198 0.0 0.0 0.00 0.00 0.00 78 1014.9
20190215070753 51 198 0.0 0.0 0.00 0.00 0.00 78 1015.4
20190215065735 51 197 0.0 0.0 0.00 0.00 0.00 77 1015.6
20190215064732 51 197 0.0 0.0 0.00 0.00 0.00 77 1015.5
20190215063715 51 197 0.0 0.0 0.00 0.00 0.00 76 1015.7
20190215062655 51 197 0.0 0.0 0.00 0.00 0.00 76 1015.7
20190215061654 51 197 0.0 0.0 0.00 0.00 0.00 75 1015.8
20190215060643 51 197 0.0 0.0 0.00 0.00 0.00 75 1015.8
20190215055607 51 218 0.0 0.0 0.00 0.00 0.00 74 1015.8